[[{"header":{"parameterUnit":"m.s-1","parameterCategory":1,"la1":30.2991,"la2":30.254,"lo1":-89.0895,"lo2":-89.0444,"dy":0.0017,"dx":0.0017,"nx":28,"ny":28,"refTime":"2025-05-17T03:00:00:Z","depth":0,"parameterNumber":2,"parameterNumberName":"U-component_of_WINDS"},"data":[0,0,0,0,0,0,0,0,0,0,0,0,0,0,0,0,0,0,0,0,0,0,0,0,0,0,0,0,0,0,0,0,0,0,0,0,0,0,0,0,0,0,0,0,0,0,0,0,0,0,0,0,0,0,0,0,0,0,1.963,1.9631,0,1.9713,1.9714,1.9715,1.9692,1.969,1.9688,1.9687,1.9773,1.9777,1.9781,0,0,0,0,0,0,0,0,0,0,0,0,0,1.9453,1.9456,1.963,1.9631,1.9632,1.9713,1.9714,1.9715,1.9692,1.969,1.9688,1.9686,1.9772,1.9776,1.9781,0,0,0,0,0,0,0,0,0,0,0,0,0,1.9532,1.9458,1.963,1.963,1.9631,1.9712,1.9714,1.9715,1.9692,1.969,1.9687,1.9685,1.977,1.9776,1.9782,1.9868,0,0,1.9799,1.9802,0,0,0,0,0,0,0,0,1.9528,1.9539,1.9629,1.9631,1.9632,1.9689,1.9683,1.9766,1.9693,1.9669,1.9687,1.9684,1.9747,1.9755,1.9776,1.9872,1.9875,1.98,1.9803,1.9806,1.9807,0,0,0,0,0,0,0,1.9522,1.9535,1.9663,1.9631,1.9632,1.9627,1.9635,1.9699,1.9721,1.9671,1.967,1.968,1.9747,1.977,1.9778,1.9877,1.98,1.9805,1.9808,1.9811,2.0045,2.0048,0,0,0,0,0,0,1.9516,1.9531,1.966,1.9665,1.9572,1.9632,1.9641,1.9673,1.9721,1.9725,1.9682,1.9678,1.9762,1.9771,1.9781,1.9883,1.9806,1.9811,1.9814,2.0043,2.0046,2.0049,0,0,0,0,0,0,1.9512,1.9528,1.9657,1.9598,1.9614,1.9638,1.9674,1.9676,1.9699,1.9729,1.9733,1.9701,1.976,1.9773,1.9846,1.9886,1.9814,1.9819,2.0039,2.0044,2.0047,2.0089,0,0,0,0,0,0,1.9507,1.9526,1.9559,1.9599,1.9617,1.9721,1.9676,1.968,1.9709,1.9705,1.9748,1.9752,1.9759,1.9837,1.9851,1.9892,1.9824,2.0036,2.0041,2.0046,2.0085,2.0095,2.0103,0,0,0,0,0,1.9501,1.9569,1.9561,1.9577,1.9659,1.9723,1.9733,1.9739,1.9712,1.9745,1.9764,1.9751,1.9879,1.9845,1.9861,1.9904,2.0033,2.004,2.0046,2.008,2.0093,2.0103,0,0,0,0,0,0,1.9535,1.9574,1.9566,1.9649,1.9682,1.9719,1.9761,1.9752,1.9795,1.979,1.9796,1.9806,1.988,1.99,1.986,1.9989,1.9952,1.9962,1.9973,1.9985,1.9994,1.9987,1.9828,0,0,0,0,0,1.9552,1.96,1.9632,1.9702,1.9719,1.9737,1.9766,1.9767,1.9802,1.9817,1.9841,1.9876,1.9924,1.9956,2.0002,2.0087,2.0096,2.0125,2.0134,2.0142,2.015,2.0195,2.0208,2.0069,2.0069,2.0069,0,0,1.9588,1.9615,1.9646,1.9709,1.9736,1.9786,1.975,1.9804,1.9841,1.9825,1.9895,1.9914,1.9954,2.0033,2.0069,2.0052,2.019,2.015,2.0155,2.0159,2.0202,2.0215,2.0227,2.0074,2.0073,2.0072,0,0,1.9678,1.9704,1.9764,1.9791,1.9831,1.9842,1.9856,1.9894,1.9906,1.9976,1.9964,2.0008,2.0092,2.012,2.0145,2.0244,2.0233,2.0259,2.0307,2.0351,2.0362,2.0371,2.0405,2.0418,2.0267,2.0268,2.0268,0,1.9717,1.9792,1.9796,1.9851,1.9879,1.9866,1.9926,1.9953,2.0006,2.0025,2.0005,2.0108,2.0134,2.0218,2.0242,2.0264,2.028,2.0254,2.036,2.0369,2.0379,2.0411,2.0424,2.027,2.027,2.027,2.0269,0,1.9837,1.9889,1.9933,1.9983,2.0016,2.0074,2.0087,2.012,2.0118,2.0131,2.0202,2.0233,2.0284,2.0304,2.0304,2.0389,2.0376,2.0358,2.0321,2.0394,2.0425,2.0437,2.0274,2.0273,2.0272,2.0272,0,0,1.9952,2.0002,2.0018,2.004,2.0083,2.0123,2.018,2.0229,2.0256,2.0293,2.034,2.041,2.0393,2.0421,2.0424,2.0463,2.0537,2.0439,2.044,2.0455,2.0631,2.0643,2.0657,2.053,2.0533,2.0535,2.0627,0,2.0044,2.0143,2.0148,2.0238,2.0285,2.0273,2.0322,2.0353,2.0367,2.0409,2.0425,2.0473,2.0448,2.0465,2.0502,2.052,2.0572,2.0514,2.0573,2.0576,2.0562,2.0674,2.0687,2.0773,2.0639,2.0641,2.0642,0,2.0166,2.0205,2.0299,2.0333,2.0353,2.0397,2.0442,2.0482,2.0517,2.0525,2.0556,2.0552,2.061,2.0572,2.065,2.061,2.0635,2.0648,2.0651,2.0656,2.0613,2.068,2.08,2.0812,2.0661,2.066,2.0658,0,2.0237,2.0314,2.0379,2.0399,2.0441,2.0472,2.0491,2.0523,2.0552,2.0591,2.061,2.0655,2.068,2.0716,2.0724,2.0696,2.0803,2.0765,2.081,2.0809,2.0832,2.083,2.0956,2.085,2.085,2.085,2.085,0,2.0339,2.0397,2.0412,2.0452,2.0516,2.0522,2.0585,2.0602,2.0631,2.0674,2.0667,2.0707,2.0717,2.076,2.0767,2.083,2.0842,2.0849,2.085,2.0849,2.0848,2.0865,2.0858,2.0853,2.0852,2.0852,2.0851,0,2.0429,2.0442,2.0513,2.0546,2.0556,2.0601,2.063,2.0669,2.0681,2.0736,2.0749,2.0769,2.0818,2.0831,2.0891,2.0895,2.097,2.0966,2.0957,2.0957,2.1,2.0995,2.114,2.1158,2.1042,2.1043,2.1044,0,2.0493,2.0537,2.0575,2.0603,2.0623,2.0668,2.0697,2.0704,2.0734,2.0776,2.0809,2.0858,2.0897,2.0977,2.0996,2.1042,2.1038,2.1086,2.1045,2.1042,2.1037,2.1033,2.1037,2.1093,2.1094,2.1095,2.1096,0,2.0604,2.0608,2.0649,2.0692,2.0726,2.0761,2.0794,2.0818,2.0829,2.0863,2.0913,2.0944,2.1003,2.1051,2.1097,2.1116,2.1108,2.1109,2.1121,2.112,2.1112,2.1115,2.0977,2.1105,2.1104,2.1104,2.1103,2.1103,2.0682,2.0719,2.0751,2.0797,2.0823,2.0853,2.0891,2.0907,2.0949,2.0998,2.0999,2.1053,2.1086,2.1146,2.1168,2.121,2.1196,2.1214,2.1218,2.1222,2.1225,2.1107,2.1219,2.1219,2.1218,2.1218,2.1218,0,2.0791,2.081,2.0853,2.0898,2.0934,2.0923,2.0959,2.099,2.1037,2.1068,2.1106,2.1163,2.1209,2.1232,2.1278,2.1307,2.1304,2.1319,2.1316,2.132,2.1237,2.1221,2.132,2.132,2.132,2.132,2.132,2.132,2.0851,2.0914,2.0921,2.0996,2.1016,2.1068,2.1089,2.1117,2.1141,2.1205,2.1243,2.1257,2.1285,2.1332,2.1374,2.1379,2.1396,2.1412,2.1415,2.1337,2.1326,2.1316,2.1301,2.1416,2.1416,2.1495,2.1496,2.1496]},{"header":{"parameterUnit":"m.s-1","parameterCategory":1,"la1":30.2991,"la2":30.254,"lo1":-89.0895,"lo2":-89.0444,"dy":0.0017,"dx":0.0017,"nx":28,"ny":28,"refTime":"2025-05-17T03:00:00:Z","depth":0,"parameterNumber":3,"parameterNumberName":"V-component_of_WINDS"},"data":[0,0,0,0,0,0,0,0,0,0,0,0,0,0,0,0,0,0,0,0,0,0,0,0,0,0,0,0,0,0,0,0,0,0,0,0,0,0,0,0,0,0,0,0,0,0,0,0,0,0,0,0,0,0,0,0,0,0,3.6928,3.6929,0,3.7014,3.7015,3.7016,3.6989,3.6987,3.6985,3.6984,3.7069,3.7073,3.7077,0,0,0,0,0,0,0,0,0,0,0,0,0,3.6735,3.6739,3.6928,3.6929,3.693,3.7014,3.7015,3.7017,3.6989,3.6987,3.6985,3.6983,3.7068,3.7072,3.7077,0,0,0,0,0,0,0,0,0,0,0,0,0,3.682,3.674,3.6928,3.6927,3.6928,3.7014,3.7015,3.7017,3.699,3.6987,3.6984,3.6982,3.7066,3.7072,3.7078,3.7169,0,0,3.7096,3.7099,0,0,0,0,0,0,0,0,3.6815,3.6827,3.6926,3.6927,3.6928,3.6988,3.6979,3.7068,3.6991,3.6966,3.6984,3.698,3.7044,3.7052,3.7074,3.7173,3.7177,3.7096,3.71,3.7103,3.7104,0,0,0,0,0,0,0,3.6809,3.6823,3.6962,3.6927,3.6929,3.6921,3.693,3.6995,3.7019,3.6968,3.6966,3.6977,3.7044,3.7068,3.7076,3.7178,3.7096,3.7102,3.7105,3.7108,3.7355,3.7358,0,0,0,0,0,0,3.6803,3.6819,3.6959,3.6965,3.6864,3.6926,3.6936,3.6972,3.7019,3.7023,3.6979,3.6975,3.7059,3.7069,3.7078,3.7188,3.7103,3.7108,3.7112,3.7352,3.7356,3.7359,0,0,0,0,0,0,3.6799,3.6816,3.6956,3.6891,3.6908,3.6933,3.6972,3.6975,3.6999,3.7027,3.7031,3.7,3.7057,3.707,3.7147,3.719,3.7111,3.7116,3.7349,3.7353,3.7357,3.7408,0,0,0,0,0,0,3.6794,3.6815,3.6851,3.6892,3.6912,3.7024,3.6975,3.6978,3.701,3.7005,3.7047,3.7052,3.7056,3.7138,3.7153,3.7197,3.7121,3.7345,3.7351,3.7356,3.7402,3.7414,3.7423,0,0,0,0,0,3.6787,3.6862,3.6853,3.687,3.6958,3.7027,3.7038,3.7043,3.7013,3.7049,3.7067,3.705,3.7183,3.7146,3.7162,3.7209,3.7342,3.7349,3.7356,3.7398,3.7411,3.7423,0,0,0,0,0,0,3.6825,3.6867,3.6858,3.6949,3.6984,3.7022,3.7068,3.7057,3.7102,3.7096,3.7099,3.7108,3.7187,3.7206,3.7164,3.7299,3.7258,3.7268,3.7285,3.7298,3.7308,3.7302,3.7126,0,0,0,0,0,3.6844,3.6897,3.6931,3.7007,3.7026,3.7044,3.7074,3.7074,3.7111,3.7126,3.7149,3.7185,3.7234,3.7267,3.7314,3.7405,3.7412,3.7445,3.7455,3.7463,3.7472,3.752,3.7534,3.7381,3.7381,3.7381,0,0,3.6883,3.6913,3.6947,3.7016,3.7043,3.7097,3.7057,3.7116,3.7155,3.7135,3.7209,3.7227,3.7266,3.735,3.7388,3.7368,3.7516,3.7472,3.7478,3.7483,3.7528,3.7543,3.7555,3.7386,3.7385,3.7384,0,0,3.6983,3.7011,3.7077,3.7106,3.7148,3.716,3.7175,3.7215,3.7226,3.73,3.7285,3.7332,3.7417,3.7446,3.7471,3.7579,3.7565,3.7594,3.7648,3.7695,3.7707,3.7717,3.7755,3.7768,3.7603,3.7603,3.7603,0,3.7026,3.7108,3.7112,3.7173,3.7203,3.7187,3.7252,3.7279,3.7335,3.7355,3.7332,3.7439,3.7464,3.7553,3.758,3.7601,3.7618,3.759,3.7705,3.7716,3.7726,3.7761,3.7776,3.7606,3.7606,3.7606,3.7605,0,3.7159,3.7216,3.7264,3.7318,3.7354,3.7416,3.7428,3.7463,3.746,3.7473,3.7548,3.7578,3.763,3.7651,3.7649,3.774,3.7726,3.7704,3.7662,3.7743,3.7777,3.7791,3.7611,3.761,3.7609,3.7608,0,0,3.7286,3.7341,3.7358,3.7382,3.7427,3.747,3.7531,3.7583,3.7612,3.7651,3.7701,3.7773,3.7753,3.7782,3.7782,3.7823,3.7905,3.7795,3.7796,3.7814,3.8005,3.8021,3.8037,3.7895,3.7898,3.79,3.8001,0,3.7388,3.7497,3.7502,3.76,3.7652,3.7636,3.7689,3.7721,3.7734,3.7779,3.7793,3.7844,3.7813,3.783,3.787,3.7886,3.7943,3.7879,3.7941,3.7943,3.7932,3.8055,3.8072,3.8167,3.8015,3.8017,3.8019,0,3.7523,3.7566,3.767,3.7706,3.7728,3.7775,3.7822,3.7865,3.7901,3.7907,3.7939,3.7933,3.7993,3.795,3.8032,3.7989,3.8014,3.8025,3.8029,3.8035,3.7986,3.8064,3.8197,3.8211,3.804,3.8038,3.8036,0,3.7604,3.7688,3.776,3.7781,3.7825,3.7859,3.7879,3.7911,3.7942,3.7982,3.8001,3.8048,3.8074,3.8109,3.8115,3.8083,3.8197,3.8154,3.8203,3.8203,3.8228,3.8226,3.8367,3.8245,3.8245,3.8244,3.8244,0,3.7718,3.7782,3.7797,3.7842,3.7912,3.7915,3.7984,3.8001,3.8031,3.8077,3.8066,3.8109,3.8114,3.8159,3.8163,3.823,3.8242,3.8248,3.8248,3.8249,3.8248,3.8265,3.8259,3.8248,3.8247,3.8247,3.8246,0,3.7821,3.7834,3.7912,3.7947,3.7957,3.8007,3.8036,3.8078,3.8089,3.8148,3.8162,3.818,3.8231,3.824,3.8301,3.8304,3.8383,3.8377,3.8372,3.8371,3.8419,3.8414,3.8576,3.8597,3.8461,3.8463,3.8464,0,3.7893,3.7942,3.7982,3.8013,3.8034,3.8084,3.8114,3.8119,3.8151,3.8194,3.823,3.8281,3.8321,3.8404,3.8421,3.8467,3.8462,3.8515,3.8468,3.8467,3.8461,3.8458,3.8463,3.8524,3.8525,3.8527,3.8528,0,3.8019,3.8023,3.8068,3.8115,3.8152,3.819,3.8225,3.825,3.8259,3.8295,3.8348,3.838,3.8441,3.8491,3.8536,3.8554,3.8542,3.8542,3.8556,3.8557,3.8551,3.8554,3.8396,3.8538,3.8537,3.8537,3.8536,3.8536,3.8108,3.815,3.8185,3.8235,3.8262,3.8295,3.8335,3.8352,3.8396,3.8447,3.8447,3.8504,3.8536,3.8596,3.8617,3.8661,3.8644,3.8664,3.8669,3.8674,3.8678,3.8545,3.8669,3.8669,3.8669,3.8669,3.8668,0,3.8233,3.8254,3.83,3.835,3.8389,3.8375,3.8412,3.8446,3.8497,3.8528,3.8568,3.8628,3.8676,3.8696,3.8743,3.8774,3.8769,3.8786,3.8784,3.8788,3.8691,3.8675,3.8789,3.8789,3.8789,3.8789,3.8789,3.8789,3.8303,3.8373,3.838,3.8462,3.8482,3.8539,3.8562,3.8591,3.8617,3.8684,3.8724,3.8737,3.8764,3.8812,3.8854,3.8859,3.8876,3.8895,3.8897,3.8807,3.8795,3.8783,3.8767,3.8899,3.8899,3.899,3.8991,3.8991]}]]